Погода в Меловом

Россия / Саратовская область     50°47′20″N   45°37′44″E
темп.,
°C
ветер,
м/с
пор.,
м/с
влажн.,
%
обл.,
%
осадки,
мм/ч
давл.,
гПа
погр.,
м
12 апреля, пн
пн1201:00+11св228195 0.0 102613
04:00+10св2285100 0.0 102614
07:00+10св228216 0.0 102815
10:00+13всв3460100 0.0 1029217
13:00+17вюв584163 0.0 1028796
16:00+17вюв694217 0.0 1028705
19:00+15вюв495152 0.0 1028150
22:00+11в495930 0.0 1030148
13 апреля, вт
вт1301:00+9всв226550 0.0 103020
04:00+8ссв226883 0.0 103013
07:00+8св346948 0.0 103148
10:00+11в465757 0.0 1031283
13:00+15вюв68415 0.0 1030779
16:00+16вюв5838100 0.0 1029815
19:00+14в3750100 0.0 1028102
22:00+11в4106199 0.0 1028159
14 апреля, ср
ср1401:00+9всв336981 0.0 102740
04:00+8св3369100 0.0 102720
07:00+7св367010 0.0 1026107
10:00+11в47555 0.0 1025336
13:00+15вюв684035 0.0 1024766
16:00+16вюв573714 0.0 1022880
19:00+14в474850 0.0 1021123
22:00+11всв335868 0.0 102136
15 апреля, чт
чт1501:00+10св226899 0.0 102017
04:00+9св22750 0.0 102013
07:00+8св33790 0.0 102042
10:00+12всв34670 0.0 1019258
13:00+16в46500 0.0 1018634
16:00+18вюв45410 0.0 1016911
19:00+16всв22484 0.0 101512
22:00+13всв12565 0.0 101511
16 апреля, пт
пт1601:00+12ссв22603 0.0 101410
04:00+11св226410 0.0 101410
07:00+10всв227075 0.0 101320
10:00+12юв235857 0.0 1013213
13:00+16ю244621 0.0 1013589
16:00+19ююз4540100 0.0 10111451
19:00+17юз4653100 0.1 1011112
22:00+13зюз596833 0.3 1011173